Orangeburg, SC

3:40 PM EDT on July 25, 2017 (GMT -0400)
Orangeburg Municipal

Weather History for KOGB - May, 2013

Change the Weather History Date:

Saturday, May 11, 2013

  Actual Average Record
Temperature  
Mean Temperature 74 °F 70 °F  
Max Temperature 84 °F 83 °F 92 °F (1963)
Min Temperature 63 °F 58 °F 41 °F (1966)
Degree Days  
Heating Degree Days 0 0  
Month to date heating degree days 17 10  
Since 1 July heating degree days 2173 2327  
Cooling Degree Days 9 6  
Month to date cooling degree days 26 51  
Year to date cooling degree days 116 136  
Growing Degree Days 23 (Base 50)    
Moisture  
Dew Point 62 °F    
Average Humidity 70    
Maximum Humidity 93    
Minimum Humidity 47    
Precipitation  
Precipitation 0.00 in 0.08 in 2.14 in (2008)
Month to date precipitation 1.50 0.91  
Year to date precipitation 16.30 15.31  
Sea Level Pressure  
Sea Level Pressure 29.94 in    
Wind  
Wind Speed 7 mph (SW)    
Max Wind Speed 16 mph    
Max Gust Speed 23 mph    
Visibility 9 miles    
Events      
T = Trace of Precipitation, MM = Missing Value Source: NWS Daily Summary

Daily Weather History Graph

Daily Weather History Graph

Search for Another Location

Airport or City:

Trip Planner

Search our weather history database for the weather conditions in past years. The results will help you decide how hot, cold, wet, or windy it might be!

Date:

Astronomy

May. 11, 2013 Rise Set
Actual Time 6:25 AM EDT 8:14 PM EDT
Civil Twilight 5:58 AM EDT 8:41 PM EDT
Nautical Twilight 5:26 AM EDT 9:14 PM EDT
Astronomical Twilight 4:51 AM EDT 9:49 PM EDT
Moon 7:34 AM EDT (5/11) 9:51 PM EDT (5/11)
Length of Visible Light 14h 42m
Length of Day
13h 48m
Waxing Crescent, 3% of the Moon is Illuminated
May 11
Waxing Crescent
May 18
First Quarter
May 25
Full
May 31
Last Quarter
Jun 8
New

Hourly Weather History & Observations

Time (EDT) Temp. Heat Index Dew Point Humidity Pressure Visibility Wind Dir Wind Speed Gust Speed Precip Events Conditions
12:53 AM 68.0 °F - 59.0 °F 73% 30.02 in 10.0 mi SSW 4.6 mph - N/A   Scattered Clouds
1:53 AM 66.9 °F - 60.1 °F 79% 30.00 in 10.0 mi SSW 4.6 mph - N/A   Clear
2:53 AM 64.9 °F - 61.0 °F 87% 30.00 in 10.0 mi Calm Calm - N/A   Mostly Cloudy
3:53 AM 64.0 °F - 61.0 °F 90% 29.98 in 10.0 mi South 3.5 mph - N/A   Clear
4:53 AM 64.0 °F - 61.0 °F 90% 29.97 in 9.0 mi SW 3.5 mph - N/A   Clear
5:53 AM 64.0 °F - 62.1 °F 93% 29.96 in 7.0 mi Calm Calm - N/A   Clear
6:53 AM 64.0 °F - 63.0 °F 96% 29.96 in 4.0 mi Calm Calm - N/A   Clear
7:53 AM 64.9 °F - 63.0 °F 93% 29.96 in 3.0 mi Calm Calm - N/A   Clear
8:53 AM 70.0 °F - 64.0 °F 81% 29.97 in 10.0 mi SW 5.8 mph - N/A   Unknown
9:53 AM 73.9 °F - 63.0 °F 68% 29.97 in 10.0 mi WSW 5.8 mph - N/A   Clear
10:53 AM 75.0 °F - 63.0 °F 66% 29.98 in 10.0 mi SW 8.1 mph - N/A   Clear
11:53 AM 78.1 °F - 64.0 °F 62% 29.95 in 10.0 mi South 6.9 mph - N/A   Clear
12:53 PM 81.0 °F 81.9 °F 62.1 °F 52% 29.94 in 10.0 mi WSW 12.7 mph 20.7 mph N/A   Clear
1:53 PM 82.9 °F 83.2 °F 60.1 °F 46% 29.91 in 10.0 mi SW 11.5 mph - N/A   Clear
2:53 PM 82.9 °F 83.2 °F 60.1 °F 46% 29.90 in 10.0 mi West 15.0 mph 23.0 mph N/A   Scattered Clouds
3:53 PM 82.9 °F 83.3 °F 61.0 °F 47% 29.89 in 10.0 mi West 13.8 mph 18.4 mph N/A   Clear
4:53 PM 81.0 °F 81.9 °F 62.1 °F 52% 29.88 in 10.0 mi WSW 11.5 mph - N/A   Clear
5:53 PM 80.1 °F 81.5 °F 63.0 °F 56% 29.88 in 10.0 mi SW 10.4 mph - N/A   Partly Cloudy
6:53 PM 78.1 °F - 63.0 °F 60% 29.88 in 10.0 mi SW 8.1 mph - N/A   Partly Cloudy
7:53 PM 77.0 °F - 63.0 °F 62% 29.88 in 10.0 mi SW 5.8 mph - N/A   Clear
8:53 PM 73.9 °F - 63.0 °F 68% 29.89 in 10.0 mi SW 4.6 mph - N/A   Clear
10:53 PM 73.0 °F - 64.0 °F 73% 29.90 in 10.0 mi SSW 4.6 mph - N/A   Overcast
11:53 PM 72.0 °F - 63.0 °F 73% 29.88 in 10.0 mi SW 8.1 mph - N/A   Overcast